Home   Weather   Menominee   Past weeks

Flag for USA Past Weather in Menominee, Michigan, USA — Yesterday and Last 2 Weeks

Now
61 °F

Passing clouds.


Feels Like: 61 °F
Forecast: 56 / 63 °F
Wind: 9 mph from Northeast

Location: Menominee Weather Reporting Station

Current Time: Sep 29, 2016 at 8:39:32 PM

Latest Report: Sep 29, 2016 at 7:56 PM


Visibility: 10 mi

Pressure: 30.45 "Hg

Humidity: 81%

Dew Point: 55 °F

Location of MenomineeLocation

Past Weather in Menominee — Graph

°F

Menominee Temperature Yesterday

Maximum temperature yesterday: 62 °F (at 1:56 PM)
Minimum temperature yesterday: 46 °F (at 4:56 AM)
Average temperature yesterday: 54 °F

High & Low Weather Summary for the Past Weeks

 TemperatureHumidityPressure
High78 °F (Sep 20, 3:56 PM)100% (Sep 15, 4:56 AM)30.45 "Hg (Sep 15, 4:56 AM)
Low46 °F (Sep 28, 4:56 AM)48% (Sep 19, 1:56 PM)29.60 "Hg (Sep 27, 10:03 AM)
Average61 °F81%30.08 "Hg
* Reported Sep 14 6:56 PM — Sep 29 6:56 PM, Menominee, Weather by CustomWeather, © 2016

Note: Actual official high and low records may vary slightly from our data, if they occured in-between our weather recording intervals... More about our weather records

Advertising

Menominee Weather History for the Previous 24 Hours

Scroll right to see more
 ConditionsComfort  
Time TempWeatherWind HumidityBarometerVisibility
6:56 PM
Thu, Sep 29
62 °FClear.9 mph83%30.44 "Hg10 mi
5:56 PM65 °FClear.10 mph68%30.42 "Hg10 mi
4:56 PM68 °FSunny.12 mph57%30.42 "Hg10 mi
3:56 PM67 °FSunny.12 mph68%30.42 "Hg10 mi
2:56 PM67 °FSunny.15 mph71%30.43 "Hg10 mi
1:56 PM67 °FSunny.13 mph71%30.43 "Hg10 mi
12:56 PM66 °FSunny.17 mph73%30.45 "Hg10 mi
11:56 AM69 °FSunny.15 mph57%30.44 "Hg10 mi
10:56 AM66 °FSunny.16 mph65%30.45 "Hg10 mi
9:56 AM64 °FSunny.12 mph73%30.45 "Hg10 mi
8:56 AM58 °FSunny.12 mph87%30.44 "Hg10 mi
7:56 AM54 °FSunny.8 mph90%30.43 "Hg10 mi
6:56 AM52 °FSunny.10 mph93%30.41 "Hg10 mi
5:56 AM53 °FSunny.7 mph89%30.40 "Hg10 mi
4:56 AM52 °FClear.8 mph97%30.32 "Hg10 mi
3:56 AM53 °FClear.10 mph93%30.31 "Hg10 mi
2:56 AM53 °FClear.9 mph89%30.36 "Hg10 mi
1:56 AM53 °FClear.8 mph89%30.35 "Hg10 mi
12:56 AM53 °FClear.9 mph93%30.35 "Hg10 mi
11:56 PM
Wed, Sep 28
54 °FClear.9 mph90%30.35 "Hg10 mi
10:56 PM54 °FClear.9 mph90%30.34 "Hg10 mi
9:56 PM55 °FClear.12 mph87%30.34 "Hg10 mi
8:56 PM56 °FClear.9 mph87%30.33 "Hg10 mi
Weather by CustomWeather, © 2016

See weather overviewHow to use our weather pages